Terminal Aerodrome Forecast
Issued by NWS Charleston, WV

Current Version | Previous Version | Graphics & Text | Print | Product List | Glossary On
Versions: 1 2 3 4 5 6 7 8 9 10 11 12 13 14 15 16 17 18 19 20 21
315
FTUS41 KRLX 211500 AAA
TAFHTS
TAF AMD
KHTS 211500Z 2115/2212 24007KT P6SM -RA BKN015 BKN060 OVC110
     FM211700 31007KT P6SM BKN030
     FM211900 31007KT P6SM BKN035
     FM220500 VRB03KT P6SM FEW030
     FM221000 VRB03KT 6SM BR FEW200=

USA.gov is the U.S. government's official web portal to all federal, state and local government web resources and services.